VTI320 VECC-VAPO

Flight info

Callsign VTI320
Flight time N/A
Altitude 36000
Route FI19L DCT D314O DCT CC201 DCT JJS G450 AAU DCT PAPMA DCT CI28 DCT FI28
Aircraft A21N/M-SDE2E3FGHIRWXY/LB1

Departure

Time 2026-05-04 15:19
Airport Netaji Subhash Chandra Bose International Airport (VECC)

Arrival

Time N/A
Airport Pune International Airport (VAPO)
Time Latitude Longitude Altitude Speed Heading
2026-05-04 14:57 22.64256 88.44039 27 ft 0 kts 274°
2026-05-04 15:05 22.64256 88.44044 27 ft 1 kts 273°
2026-05-04 15:06 22.64255 88.44055 28 ft 1 kts 276°
2026-05-04 15:06 22.64254 88.44062 28 ft 0 kts 278°
2026-05-04 15:07 22.64254 88.44063 27 ft 2 kts 277°
2026-05-04 15:07 22.64252 88.44081 18 ft 2 kts 278°
2026-05-04 15:07 22.64249 88.44098 32 ft 2 kts 282°
2026-05-04 15:07 22.64246 88.44114 27 ft 2 kts 279°
2026-05-04 15:08 22.64242 88.44130 27 ft 2 kts 324°
2026-05-04 15:08 22.64227 88.44134 27 ft 2 kts
2026-05-04 15:08 22.64215 88.44133 27 ft 1 kts
2026-05-04 15:08 22.64214 88.44133 27 ft 0 kts
2026-05-04 15:10 22.64234 88.44136 27 ft 6 kts
2026-05-04 15:11 22.64288 88.44142 27 ft 12 kts
2026-05-04 15:11 22.64392 88.44154 27 ft 18 kts
2026-05-04 15:11 22.64541 88.44173 27 ft 24 kts
2026-05-04 15:11 22.64709 88.44192 27 ft 29 kts
2026-05-04 15:12 22.64780 88.44200 28 ft 29 kts
2026-05-04 15:12 22.64848 88.44208 28 ft 6 kts
2026-05-04 15:12 22.64859 88.44209 28 ft 3 kts
2026-05-04 15:12 22.64898 88.44214 28 ft 9 kts
2026-05-04 15:13 22.64956 88.44221 28 ft 14 kts
2026-05-04 15:13 22.64993 88.44226 28 ft 1 kts
2026-05-04 15:13 22.65019 88.44229 28 ft 7 kts 12°
2026-05-04 15:13 22.65069 88.44281 28 ft 13 kts 60°
2026-05-04 15:14 22.65112 88.44385 27 ft 15 kts 62°
2026-05-04 15:14 22.65172 88.44421 27 ft 12 kts
2026-05-04 15:14 22.65273 88.44434 28 ft 18 kts
2026-05-04 15:14 22.65416 88.44450 28 ft 23 kts
2026-05-04 15:15 22.65585 88.44469 29 ft 28 kts
2026-05-04 15:15 22.65735 88.44478 28 ft 25 kts 14°
2026-05-04 15:15 22.65913 88.44463 29 ft 28 kts 344°
2026-05-04 15:16 22.66354 88.44495 28 ft 36 kts
2026-05-04 15:16 22.66553 88.44526 28 ft 14 kts 27°
2026-05-04 15:16 22.66558 88.44663 29 ft 14 kts 105°
2026-05-04 15:17 22.66515 88.44691 29 ft 6 kts 185°
2026-05-04 15:17 22.66506 88.44690 29 ft 0 kts 186°
2026-05-04 15:18 22.66325 88.44670 26 ft 62 kts 186°
2026-05-04 15:19 22.64670 88.44595 319 ft 166 kts 179°
2026-05-04 15:19 22.63428 88.44553 769 ft 191 kts 181°
2026-05-04 15:19 22.60674 88.44104 2143 ft 219 kts 199°
2026-05-04 15:20 22.59245 88.43310 2432 ft 244 kts 217°
2026-05-04 15:20 22.58474 88.42383 2678 ft 259 kts 238°
2026-05-04 15:20 22.57905 88.40506 3268 ft 269 kts 259°
2026-05-04 15:20 22.57833 88.38473 3960 ft 274 kts 271°
2026-05-04 15:21 22.58040 88.36419 4692 ft 277 kts 276°
2026-05-04 15:21 22.58366 88.34358 5404 ft 279 kts 278°
2026-05-04 15:21 22.59051 88.30174 6750 ft 285 kts 277°
2026-05-04 15:22 22.59350 88.28052 7427 ft 287 kts 276°
2026-05-04 15:22 22.59621 88.25902 8136 ft 288 kts 276°
2026-05-04 15:22 22.60109 88.21581 9593 ft 291 kts 276°
2026-05-04 15:23 22.60344 88.19392 10206 ft 296 kts 275°
2026-05-04 15:23 22.60582 88.17137 10467 ft 314 kts 275°
2026-05-04 15:23 22.60839 88.14689 10695 ft 331 kts 275°
2026-05-04 15:23 22.61106 88.12149 10911 ft 347 kts 275°
2026-05-04 15:24 22.61676 88.06841 11587 ft 365 kts 276°
2026-05-04 15:24 22.62278 88.01338 12589 ft 370 kts 276°
2026-05-04 15:25 22.62582 87.98555 13085 ft 374 kts 276°
2026-05-04 15:25 22.62888 87.95745 13617 ft 376 kts 276°
2026-05-04 15:25 22.63193 87.92927 14099 ft 378 kts 276°
2026-05-04 15:26 22.63807 87.87230 15042 ft 383 kts 276°
2026-05-04 15:26 22.64115 87.84362 15496 ft 385 kts 276°
2026-05-04 15:26 22.64731 87.78612 16438 ft 388 kts 275°
2026-05-04 15:27 22.65043 87.75698 16870 ft 390 kts 275°
2026-05-04 15:27 22.65669 87.69826 17682 ft 394 kts 275°
2026-05-04 15:28 22.65951 87.67171 17987 ft 397 kts 275°
2026-05-04 15:28 22.66268 87.64190 18301 ft 399 kts 275°
2026-05-04 15:28 22.66902 87.58209 18862 ft 401 kts 275°
2026-05-04 15:29 22.67220 87.55201 19129 ft 403 kts 275°
2026-05-04 15:30 22.68495 87.43076 20100 ft 407 kts 274°
2026-05-04 15:30 22.69456 87.33887 20800 ft 411 kts 274°
2026-05-04 15:31 22.70097 87.27726 21329 ft 412 kts 274°
2026-05-04 15:31 22.70418 87.24627 21584 ft 414 kts 274°
2026-05-04 15:32 22.71273 87.16346 22250 ft 417 kts 274°
2026-05-04 15:32 22.71515 87.13997 22441 ft 418 kts 274°
2026-05-04 15:33 22.72164 87.07683 22936 ft 420 kts 274°